SCP
0 0 0 0 0 0 0 0 0 0 0 0 0 0 0 0 0 0 0 0 0 0 0 0 0 0 0 0 0 0 0 0 0 0 0 0 0 0
0 0 0 0 0 0 0 0 0 0 0 0 0 0 0 0 0 0 0 0 0 0 0 0 0 0 0 0 0 0 0 -0 -0 -0 -0 -0 -0 0
0 0 0 0 0 0 0 0 0 0 0 0 0 0 0 0 0 0 0 0 0 0 0 0 0 0 0 0 -0 -0 -0 -0 -0 -0 -0 -0 0 0
0 0 0 0 0 0 0 0 0 0 0 0 0 0 0 0 0 0 0 0 0 0 0 0 -0 -0 0 0 0 0 0 0 0 0 0 0 0 0
0 0 0 0 0 0 0 0 0 0 0 0 0 0 0 0 0 0 0 0 0 0 0 0 -0 0 0 0 0 0 0 0 0 0 0 0 0 0
0 0 0 0 0 0 0 0 0 0 0 0 0 0 0 0 0 0 0 0 0 0 0 0 0 0 0 0 0 0 0 0 0 0 0 0 0 0
0 0 0 0 0 0 0 0 0 0 0 0 0 0 0 0 0 0 0 0 0 0 0 0 0 0 0 0 0 0 0 0 0 0 0 0 0 0
0 0 0 0 0 0 0 0 0 0 0 0 0 0 0 0 0 0 0 0 0 0 0 0 0 0 0 0 0 0 0 0 0 0 0 0 0 0
0 0 0 0 0 0 0 0 0 0 0 0 0 0 0 0 0 0 0 0 0 0 0 0 0 0 0 0 0 -0 -0 0 -0 0 0 0 0 0
0 0 0 0 0 0 0 0 0 0 0 0 0 0 0 0 0 0 0 0 0 0 0 0 0 0 0 0 0 -0 0 0 0 0 0 0 0 0
0 0 0 0 0 0 0 0 0 0 0 0 0 0 0 0 0 0 0 0 0 0 0 0 0 0 0 0 0 0 0 0 0 0 0 0 0 0
0 0 0 0 0 0 0 0 0 0 0 0 0 0 0 0 0 0 0 0 0 0 0 0 0 0 0 0 0 0 0 0 0 0 0 0 0 0
0 0 0 0 0 0 0 0 0 0 0 0 0 0 0 0 0 0 0 0 0 0 0 0 0 0 0 0 0 0 0 0 0 0 0 -0 -0 -0
0 0 0 0 0 0 0 0 0 0 0 0 0 0 0 0 0 0 0 0 0 0 0 0 0 0 0 0 0 0 0 0 0 0 0 -0 -0 -0
0 0 0 0 0 0 0 0 0 0 0 0 0 0 0 0 0 0 0 0 0 0 0 0 0 0 0 0 0 0 0 0 0 -0 0 0 0 0
0 0 0 0 0 0 0 0 0 0 0 0 0 0 0 0 0 0 0 0 0 0 0 0 0 0 0 0 0 0 0 0 0 0 0 0 0 0
0 0 0 0 0 0 0 0 0 0 0 0 0 0 0 0 0 0 0 0 0 0 0 0 0 0 0 0 0 0 0 0 0 0 0 0 0 0
0 0 0 0 0 0 0 0 0 0 0 0 0 0 0 0 0 0 0 0 0 0 0 0 0 0 0 0 0 0 0 0 0 0 0 0 0 0
0 0 0 0 0 0 0 0 0 0 0 0 0 0 0 0 0 0 0 0 0 0 0 0 0 0 0 0 0 -0 0 0 0 0 0 0 0 0
0 0 0 0 0 0 0 0 0 0 0 0 0 0 0 0 0 0 0 0 0 0 0 0 0 0 0 0 0 0 0 0 0 0 0 0 0 0
0 0 0 0 0 0 0 0 0 0 0 0 0 0 0 0 0 0 0 0 0 0 0 0 0 0 0 0 0 0 0 0 0 0 0 0 0 0
0 0 0 0 0 0 0 0 0 0 0 0 0 0 0 0 0 0 0 0 0 0 0 0 0 0 0 0 0 0 0 0 0 -0 -0 0 0 0
0 0 0 0 0 0 0 0 0 0 0 0 0 0 0 0 0 0 0 0 0 0 0 0 0 0 0 0 0 0 0 0 0 0 0 -0 0 0
Wind_Speed_500mb
104 101 100 93 87 81 73 66 61 50 56 58 53 56 56 52 46 36 29 23 20 22 27 31 35 34 31 29 29 30 32 34 37 37 40 43 47 50
112 111 107 103 96 90 83 75 71 63 48 56 59 58 57 54 46 38 31 25 26 28 29 31 34 35 34 35 35 37 36 38 39 40 44 48 51 53
118 119 113 110 105 101 93 87 81 75 69 62 58 56 57 57 50 44 36 31 30 32 30 32 31 29 29 28 31 32 31 31 35 38 40 42 45 48
125 124 120 116 114 109 103 97 91 83 79 76 66 64 64 60 55 48 42 36 35 34 31 32 31 29 29 30 30 27 28 29 31 34 37 43 49 54
128 130 123 122 120 118 112 105 99 93 86 82 77 71 69 67 59 52 48 41 37 36 35 35 31 32 31 30 29 30 30 32 35 39 43 47 52 57
126 131 126 130 127 125 116 114 106 101 95 89 84 76 72 67 62 56 54 45 41 39 36 38 36 36 32 30 27 26 28 27 27 31 35 38 44 49
113 124 129 133 131 126 123 120 114 107 103 96 94 86 79 74 73 64 59 51 47 46 42 43 40 41 36 29 25 23 25 22 21 25 33 39 45 51
114 119 126 126 136 128 127 120 120 114 114 107 100 94 86 80 73 67 59 54 46 49 46 42 45 40 37 26 20 19 19 20 24 30 38 45 53 59
101 110 120 125 135 131 133 124 124 118 112 109 105 95 90 83 76 71 64 56 49 46 45 41 41 39 37 27 22 20 18 26 30 37 43 51 58 63
91 97 112 120 128 128 132 130 129 122 119 116 104 88 83 78 74 67 61 54 51 47 46 51 38 41 40 39 28 22 27 28 37 43 48 55 61 67
91 94 104 112 122 125 126 131 131 127 120 116 105 91 87 80 72 67 61 56 50 49 47 47 41 40 45 45 30 27 38 38 41 48 52 57 61 70
92 97 102 105 106 115 115 119 128 134 127 116 101 91 85 82 77 71 61 56 50 41 45 45 38 35 25 33 33 45 46 47 56 61 61 59 63 72
92 98 103 100 103 104 97 112 122 126 123 110 97 92 88 82 77 72 68 57 52 46 36 41 42 38 37 41 43 45 45 56 59 63 61 64 65 68
91 92 93 92 89 91 89 104 99 108 114 105 102 101 94 88 78 69 60 56 52 47 43 45 51 43 43 50 46 42 56 62 60 59 65 69 73 73
90 93 94 88 77 82 87 104 87 102 106 105 109 108 94 83 67 65 57 54 54 50 44 45 49 47 48 51 58 62 67 70 53 67 72 75 78 82
76 90 94 91 77 80 81 97 99 106 104 107 108 97 88 78 70 64 60 58 54 48 42 42 46 47 51 52 54 65 61 70 73 76 83 88 87 89
71 86 85 82 76 81 87 98 100 99 92 99 99 94 83 72 69 64 60 55 51 44 43 43 42 43 47 52 61 60 63 66 67 80 87 98 97 94
72 85 83 82 75 79 84 92 94 95 93 100 94 85 78 75 69 61 58 51 49 44 42 39 37 41 45 51 53 58 64 65 73 78 80 91 107 102
87 87 82 80 74 82 83 91 94 97 92 88 83 82 80 72 65 58 55 52 45 41 38 35 33 36 39 51 59 57 49 67 80 86 86 82 86 111
82 84 81 79 75 82 87 93 95 96 88 89 87 83 79 72 66 59 55 47 40 35 32 32 32 30 32 44 61 77 66 70 68 88 97 99 103 108
70 81 79 76 78 90 98 101 101 97 88 85 78 74 72 66 56 51 47 42 34 31 31 30 28 32 40 45 62 80 79 60 66 73 88 91 106 121
61 76 73 78 69 80 91 93 92 92 86 78 71 68 58 55 50 46 42 35 31 27 27 29 30 28 31 38 60 81 96 93 79 81 69 73 83 91
62 74 77 64 63 75 82 83 85 86 78 71 67 61 53 45 42 39 35 31 27 26 27 31 27 28 34 40 57 75 89 104 110 109 95 71 73 85
Wind_Direction_500mb
236 236 236 235 235 235 234 233 231 226 223 226 227 228 227 229 226 237 248 257 269 283 295 303 304 304 306 304 308 315 322 322 319 317 315 314 315 313
235 235 234 234 234 234 233 233 231 234 234 231 231 233 229 229 231 244 253 264 272 279 289 298 302 308 309 310 312 318 319 320 324 325 324 321 318 317
237 236 236 235 234 233 232 231 231 230 232 234 230 229 228 226 232 238 243 249 255 269 282 290 296 299 302 307 314 316 317 317 314 315 316 318 315 313
240 238 236 234 234 234 233 232 231 230 231 234 233 229 227 229 234 237 241 248 255 267 282 290 292 296 297 300 301 303 303 306 311 315 318 322 323 320
245 243 239 238 236 234 233 232 231 230 228 232 232 230 229 232 233 238 244 247 257 268 280 286 289 290 292 296 304 308 313 315 319 321 321 319 315 314
250 248 245 242 240 238 235 235 231 231 227 225 229 229 230 230 232 236 245 248 256 266 276 282 281 282 282 288 291 298 296 302 309 311 312 312 312 313
254 252 248 246 243 241 240 236 235 231 229 225 225 226 227 229 232 234 238 245 251 257 260 265 263 265 266 271 274 273 280 285 295 309 315 320 318 317
257 254 251 249 247 242 241 239 240 237 233 229 227 229 231 233 235 237 239 244 250 256 258 257 264 269 273 272 269 274 278 305 320 329 330 328 327 324
259 255 254 252 249 244 241 238 239 237 237 240 234 233 234 235 235 236 238 243 247 257 266 262 271 276 273 279 279 276 295 318 323 326 328 323 318 317
258 259 256 254 252 247 241 237 236 234 233 234 232 233 237 235 233 234 237 240 243 248 261 268 270 274 278 281 270 251 306 312 323 323 319 316 316 315
258 256 255 252 253 251 244 239 235 234 231 232 229 227 228 230 229 229 228 234 240 248 254 261 270 273 282 283 249 251 304 318 318 320 320 321 321 317
258 255 253 254 254 252 245 241 235 232 225 224 223 222 224 227 228 229 227 230 233 246 256 252 265 282 296 281 252 297 306 315 325 323 326 325 323 320
249 250 252 251 246 245 232 241 240 234 228 225 223 220 218 216 221 222 230 228 233 234 248 261 269 269 272 276 281 290 300 315 322 320 322 324 325 324
245 245 249 252 245 237 225 232 229 225 227 219 218 218 214 215 215 224 226 233 236 240 244 254 263 268 272 280 282 292 303 312 321 319 323 325 325 323
245 248 248 253 249 221 225 218 217 217 223 218 217 217 215 214 214 221 222 232 237 241 243 252 264 271 273 278 282 298 313 315 313 321 321 323 323 322
243 247 244 246 247 236 224 213 211 214 220 219 216 214 212 207 214 214 223 228 233 240 244 249 259 268 276 282 289 301 312 306 313 321 323 321 322 321
240 236 234 229 231 221 211 205 206 205 204 210 209 206 205 207 206 210 219 224 231 237 243 248 256 267 276 286 292 300 306 305 312 322 320 316 317 320
232 223 218 219 223 210 204 199 199 201 204 206 205 203 204 204 205 210 217 224 232 239 247 254 265 276 285 290 292 304 304 307 315 317 313 313 315 317
225 220 215 212 216 202 202 199 191 207 208 204 202 205 205 202 205 207 217 223 230 240 251 260 270 282 288 292 299 309 303 306 312 316 319 308 299 316
222 214 211 210 210 197 201 202 201 204 203 204 204 203 203 202 204 211 214 220 229 241 255 267 276 278 278 290 294 301 306 311 313 315 317 313 308 312
227 209 211 206 204 204 208 208 208 199 202 203 202 200 199 200 201 210 220 226 235 248 261 271 279 275 283 296 297 308 311 300 305 302 307 297 304 314
223 206 200 202 214 213 209 211 207 202 204 203 200 199 195 200 207 213 220 229 243 259 274 283 289 285 288 291 299 309 311 314 311 311 295 287 286 290
213 203 200 208 218 217 217 215 210 204 203 202 197 192 199 200 205 214 223 235 250 268 286 294 289 290 290 292 296 305 312 316 321 318 310 299 291 288
Wind_Speed_850mb
104 101 100 93 87 81 73 66 61 50 56 58 53 56 56 52 46 36 29 23 20 22 27 31 35 34 31 29 29 30 32 34 37 37 40 43 47 50
112 111 107 103 96 90 83 75 71 63 48 56 59 58 57 54 46 38 31 25 26 28 29 31 34 35 34 35 35 37 36 38 39 40 44 48 51 53
118 119 113 110 105 101 93 87 81 75 69 62 58 56 57 57 50 44 36 31 30 32 30 32 31 29 29 28 31 32 31 31 35 38 40 42 45 48
125 124 120 116 114 109 103 97 91 83 79 76 66 64 64 60 55 48 42 36 35 34 31 32 31 29 29 30 30 27 28 29 31 34 37 43 49 54
128 130 123 122 120 118 112 105 99 93 86 82 77 71 69 67 59 52 48 41 37 36 35 35 31 32 31 30 29 30 30 32 35 39 43 47 52 57
126 131 126 130 127 125 116 114 106 101 95 89 84 76 72 67 62 56 54 45 41 39 36 38 36 36 32 30 27 26 28 27 27 31 35 38 44 49
113 124 129 133 131 126 123 120 114 107 103 96 94 86 79 74 73 64 59 51 47 46 42 43 40 41 36 29 25 23 25 22 21 25 33 39 45 51
114 119 126 126 136 128 127 120 120 114 114 107 100 94 86 80 73 67 59 54 46 49 46 42 45 40 37 26 20 19 19 20 24 30 38 45 53 59
101 110 120 125 135 131 133 124 124 118 112 109 105 95 90 83 76 71 64 56 49 46 45 41 41 39 37 27 22 20 18 26 30 37 43 51 58 63
91 97 112 120 128 128 132 130 129 122 119 116 104 88 83 78 74 67 61 54 51 47 46 51 38 41 40 39 28 22 27 28 37 43 48 55 61 67
91 94 104 112 122 125 126 131 131 127 120 116 105 91 87 80 72 67 61 56 50 49 47 47 41 40 45 45 30 27 38 38 41 48 52 57 61 70
92 97 102 105 106 115 115 119 128 134 127 116 101 91 85 82 77 71 61 56 50 41 45 45 38 35 25 33 33 45 46 47 56 61 61 59 63 72
92 98 103 100 103 104 97 112 122 126 123 110 97 92 88 82 77 72 68 57 52 46 36 41 42 38 37 41 43 45 45 56 59 63 61 64 65 68
91 92 93 92 89 91 89 104 99 108 114 105 102 101 94 88 78 69 60 56 52 47 43 45 51 43 43 50 46 42 56 62 60 59 65 69 73 73
90 93 94 88 77 82 87 104 87 102 106 105 109 108 94 83 67 65 57 54 54 50 44 45 49 47 48 51 58 62 67 70 53 67 72 75 78 82
76 90 94 91 77 80 81 97 99 106 104 107 108 97 88 78 70 64 60 58 54 48 42 42 46 47 51 52 54 65 61 70 73 76 83 88 87 89
71 86 85 82 76 81 87 98 100 99 92 99 99 94 83 72 69 64 60 55 51 44 43 43 42 43 47 52 61 60 63 66 67 80 87 98 97 94
72 85 83 82 75 79 84 92 94 95 93 100 94 85 78 75 69 61 58 51 49 44 42 39 37 41 45 51 53 58 64 65 73 78 80 91 107 102
87 87 82 80 74 82 83 91 94 97 92 88 83 82 80 72 65 58 55 52 45 41 38 35 33 36 39 51 59 57 49 67 80 86 86 82 86 111
82 84 81 79 75 82 87 93 95 96 88 89 87 83 79 72 66 59 55 47 40 35 32 32 32 30 32 44 61 77 66 70 68 88 97 99 103 108
70 81 79 76 78 90 98 101 101 97 88 85 78 74 72 66 56 51 47 42 34 31 31 30 28 32 40 45 62 80 79 60 66 73 88 91 106 121
61 76 73 78 69 80 91 93 92 92 86 78 71 68 58 55 50 46 42 35 31 27 27 29 30 28 31 38 60 81 96 93 79 81 69 73 83 91
62 74 77 64 63 75 82 83 85 86 78 71 67 61 53 45 42 39 35 31 27 26 27 31 27 28 34 40 57 75 89 104 110 109 95 71 73 85
Wind_Direction_850mb
236 236 236 235 235 235 234 233 231 226 223 226 227 228 227 229 226 237 248 257 269 283 295 303 304 304 306 304 308 315 322 322 319 317 315 314 315 313
235 235 234 234 234 234 233 233 231 234 234 231 231 233 229 229 231 244 253 264 272 279 289 298 302 308 309 310 312 318 319 320 324 325 324 321 318 317
237 236 236 235 234 233 232 231 231 230 232 234 230 229 228 226 232 238 243 249 255 269 282 290 296 299 302 307 314 316 317 317 314 315 316 318 315 313
240 238 236 234 234 234 233 232 231 230 231 234 233 229 227 229 234 237 241 248 255 267 282 290 292 296 297 300 301 303 303 306 311 315 318 322 323 320
245 243 239 238 236 234 233 232 231 230 228 232 232 230 229 232 233 238 244 247 257 268 280 286 289 290 292 296 304 308 313 315 319 321 321 319 315 314
250 248 245 242 240 238 235 235 231 231 227 225 229 229 230 230 232 236 245 248 256 266 276 282 281 282 282 288 291 298 296 302 309 311 312 312 312 313
254 252 248 246 243 241 240 236 235 231 229 225 225 226 227 229 232 234 238 245 251 257 260 265 263 265 266 271 274 273 280 285 295 309 315 320 318 317
257 254 251 249 247 242 241 239 240 237 233 229 227 229 231 233 235 237 239 244 250 256 258 257 264 269 273 272 269 274 278 305 320 329 330 328 327 324
259 255 254 252 249 244 241 238 239 237 237 240 234 233 234 235 235 236 238 243 247 257 266 262 271 276 273 279 279 276 295 318 323 326 328 323 318 317
258 259 256 254 252 247 241 237 236 234 233 234 232 233 237 235 233 234 237 240 243 248 261 268 270 274 278 281 270 251 306 312 323 323 319 316 316 315
258 256 255 252 253 251 244 239 235 234 231 232 229 227 228 230 229 229 228 234 240 248 254 261 270 273 282 283 249 251 304 318 318 320 320 321 321 317
258 255 253 254 254 252 245 241 235 232 225 224 223 222 224 227 228 229 227 230 233 246 256 252 265 282 296 281 252 297 306 315 325 323 326 325 323 320
249 250 252 251 246 245 232 241 240 234 228 225 223 220 218 216 221 222 230 228 233 234 248 261 269 269 272 276 281 290 300 315 322 320 322 324 325 324
245 245 249 252 245 237 225 232 229 225 227 219 218 218 214 215 215 224 226 233 236 240 244 254 263 268 272 280 282 292 303 312 321 319 323 325 325 323
245 248 248 253 249 221 225 218 217 217 223 218 217 217 215 214 214 221 222 232 237 241 243 252 264 271 273 278 282 298 313 315 313 321 321 323 323 322
243 247 244 246 247 236 224 213 211 214 220 219 216 214 212 207 214 214 223 228 233 240 244 249 259 268 276 282 289 301 312 306 313 321 323 321 322 321
240 236 234 229 231 221 211 205 206 205 204 210 209 206 205 207 206 210 219 224 231 237 243 248 256 267 276 286 292 300 306 305 312 322 320 316 317 320
232 223 218 219 223 210 204 199 199 201 204 206 205 203 204 204 205 210 217 224 232 239 247 254 265 276 285 290 292 304 304 307 315 317 313 313 315 317
225 220 215 212 216 202 202 199 191 207 208 204 202 205 205 202 205 207 217 223 230 240 251 260 270 282 288 292 299 309 303 306 312 316 319 308 299 316
222 214 211 210 210 197 201 202 201 204 203 204 204 203 203 202 204 211 214 220 229 241 255 267 276 278 278 290 294 301 306 311 313 315 317 313 308 312
227 209 211 206 204 204 208 208 208 199 202 203 202 200 199 200 201 210 220 226 235 248 261 271 279 275 283 296 297 308 311 300 305 302 307 297 304 314
223 206 200 202 214 213 209 211 207 202 204 203 200 199 195 200 207 213 220 229 243 259 274 283 289 285 288 291 299 309 311 314 311 311 295 287 286 290
213 203 200 208 218 217 217 215 210 204 203 202 197 192 199 200 205 214 223 235 250 268 286 294 289 290 290 292 296 305 312 316 321 318 310 299 291 288